WZZ6321 EPLL-LZIB

Flight info

Callsign WZZ6321
Flight time 0h 58m
Altitude 32000
Route VIDEV N133 NEGUV M66 BABKO DCT NIT
Aircraft A21N/M-SDE2E3FGHIRWXY/LB1

Departure

Time 2026-05-07 20:02
Airport Łódź Władysław Reymont Airport (EPLL)

Arrival

Time 2026-05-07 21:01
Airport M. R. Štefánik Airport (LZIB)
Time Latitude Longitude Altitude Speed Heading
2026-05-07 19:05 51.72607 19.40090 621 ft 0 kts 341°
2026-05-07 19:54 51.72593 19.40097 634 ft 4 kts 351°
2026-05-07 19:54 51.72568 19.40095 634 ft 4 kts 24°
2026-05-07 19:54 51.72549 19.40070 633 ft 5 kts 63°
2026-05-07 19:55 51.72546 19.40059 632 ft 2 kts 71°
2026-05-07 19:58 51.72547 19.40064 632 ft 2 kts 71°
2026-05-07 19:58 51.72558 19.40116 625 ft 7 kts 71°
2026-05-07 19:58 51.72575 19.40201 623 ft 9 kts 71°
2026-05-07 19:59 51.72587 19.40306 620 ft 9 kts 86°
2026-05-07 19:59 51.72575 19.40413 629 ft 11 kts 124°
2026-05-07 19:59 51.72522 19.40502 630 ft 7 kts 137°
2026-05-07 19:59 51.72505 19.40523 620 ft 0 kts 152°
2026-05-07 20:00 51.72480 19.40544 624 ft 8 kts 152°
2026-05-07 20:00 51.72426 19.40581 620 ft 9 kts 163°
2026-05-07 20:01 51.72367 19.40597 631 ft 9 kts 212°
2026-05-07 20:01 51.72347 19.40544 622 ft 0 kts 248°
2026-05-07 20:01 51.72340 19.40515 627 ft 17 kts 249°
2026-05-07 20:02 51.72208 19.39908 613 ft 97 kts 251°
2026-05-07 20:02 51.71916 19.38525 592 ft 157 kts 251°
2026-05-07 20:02 51.71526 19.36802 1066 ft 163 kts 251°
2026-05-07 20:02 51.71125 19.35090 1802 ft 163 kts 251°
2026-05-07 20:03 51.70729 19.33410 2410 ft 160 kts 252°
2026-05-07 20:03 51.70378 19.31691 2869 ft 165 kts 252°
2026-05-07 20:03 51.69681 19.30116 3201 ft 190 kts 213°
2026-05-07 20:03 51.68372 19.29689 3590 ft 213 kts 173°
2026-05-07 20:04 51.67037 19.30829 4087 ft 233 kts 136°
2026-05-07 20:04 51.66421 19.32361 4305 ft 252 kts 110°
2026-05-07 20:04 51.66257 19.35224 4788 ft 271 kts 83°
2026-05-07 20:04 51.66525 19.38277 5575 ft 278 kts 84°
2026-05-07 20:05 51.66598 19.41412 6467 ft 282 kts 92°
2026-05-07 20:05 51.66721 19.44570 7284 ft 285 kts 79°
2026-05-07 20:05 51.67142 19.47718 8152 ft 289 kts 77°
2026-05-07 20:05 51.67577 19.50895 8988 ft 292 kts 78°
2026-05-07 20:06 51.67989 19.54132 9824 ft 296 kts 79°
2026-05-07 20:06 51.68379 19.57439 10408 ft 308 kts 82°
2026-05-07 20:06 51.68425 19.60976 10718 ft 326 kts 100°
2026-05-07 20:06 51.67675 19.64491 10984 ft 342 kts 122°
2026-05-07 20:07 51.66094 19.67449 11245 ft 357 kts 143°
2026-05-07 20:07 51.63978 19.69582 11498 ft 372 kts 153°
2026-05-07 20:07 51.61659 19.71604 11881 ft 385 kts 153°
2026-05-07 20:07 51.59293 19.73707 12492 ft 390 kts 153°
2026-05-07 20:08 51.56920 19.75869 13132 ft 393 kts 152°
2026-05-07 20:08 51.54538 19.78070 13753 ft 396 kts 152°
2026-05-07 20:08 51.52110 19.80178 14303 ft 397 kts 158°
2026-05-07 20:08 51.49513 19.81706 14897 ft 397 kts 164°
2026-05-07 20:09 51.46881 19.83076 15513 ft 399 kts 165°
2026-05-07 20:09 51.44228 19.84445 16150 ft 401 kts 165°
2026-05-07 20:09 51.41567 19.85820 16829 ft 402 kts 165°
2026-05-07 20:10 51.36223 19.88588 18146 ft 406 kts 165°
2026-05-07 20:10 51.33531 19.89984 18735 ft 407 kts 165°
2026-05-07 20:10 51.30824 19.91390 19272 ft 409 kts 165°
2026-05-07 20:10 51.28151 19.92781 19792 ft 410 kts 165°
2026-05-07 20:11 51.25434 19.94191 20282 ft 411 kts 164°
2026-05-07 20:11 51.23923 19.94971 20543 ft 412 kts 164°
2026-05-07 20:11 51.21156 19.96398 20991 ft 413 kts 164°
2026-05-07 20:11 51.18420 19.97804 21368 ft 414 kts 164°
2026-05-07 20:12 51.15666 19.99217 21736 ft 416 kts 164°
2026-05-07 20:12 51.12906 20.00635 22062 ft 418 kts 164°
2026-05-07 20:12 51.10133 20.02058 22353 ft 419 kts 164°
2026-05-07 20:12 51.07351 20.03484 22628 ft 420 kts 164°
2026-05-07 20:13 51.04592 20.04897 22852 ft 422 kts 164°
2026-05-07 20:13 51.01802 20.06322 23049 ft 423 kts 164°
2026-05-07 20:13 50.98987 20.07758 23238 ft 424 kts 164°
2026-05-07 20:13 50.96174 20.09177 23378 ft 424 kts 165°
2026-05-07 20:14 50.93295 20.10190 23478 ft 424 kts 173°
2026-05-07 20:14 50.90350 20.10357 23544 ft 423 kts 184°
2026-05-07 20:14 50.87445 20.09625 23583 ft 424 kts 194°
2026-05-07 20:14 50.84613 20.08252 23626 ft 425 kts 197°
2026-05-07 20:15 50.81813 20.06774 23632 ft 425 kts 197°
2026-05-07 20:15 50.79000 20.05293 23615 ft 426 kts 197°
2026-05-07 20:15 50.76176 20.03831 23568 ft 426 kts 197°
2026-05-07 20:15 50.73363 20.02395 23511 ft 425 kts 197°
2026-05-07 20:16 50.70581 20.00984 23442 ft 424 kts 197°
2026-05-07 20:16 50.67774 19.99566 23366 ft 422 kts 197°
2026-05-07 20:16 50.64990 19.98156 23295 ft 419 kts 197°
2026-05-07 20:16 50.62217 19.96758 23227 ft 416 kts 197°
2026-05-07 20:17 50.59472 19.95376 23172 ft 413 kts 197°
2026-05-07 20:17 50.56749 19.94006 23128 ft 409 kts 197°
2026-05-07 20:17 50.54048 19.92650 23069 ft 405 kts 197°
2026-05-07 20:17 50.51371 19.91308 23011 ft 401 kts 197°
2026-05-07 20:18 50.48722 19.89979 22954 ft 397 kts 196°
2026-05-07 20:18 50.46109 19.88671 22897 ft 392 kts 196°
2026-05-07 20:18 50.43519 19.87376 22832 ft 387 kts 196°
2026-05-07 20:18 50.40996 19.86115 22771 ft 382 kts 196°
2026-05-07 20:19 50.38476 19.84857 22709 ft 377 kts 196°
2026-05-07 20:19 50.35990 19.83616 22646 ft 372 kts 196°
2026-05-07 20:19 50.33538 19.82397 22587 ft 367 kts 196°
2026-05-07 20:19 50.31119 19.81199 22524 ft 362 kts 196°
2026-05-07 20:20 50.28738 19.80015 22463 ft 356 kts 197°
2026-05-07 20:20 50.26390 19.78850 22401 ft 351 kts 197°
2026-05-07 20:20 50.24084 19.77706 22339 ft 345 kts 197°
2026-05-07 20:20 50.21810 19.76583 22278 ft 340 kts 196°
2026-05-07 20:21 50.19573 19.75481 22222 ft 334 kts 197°
2026-05-07 20:21 50.17402 19.74412 22148 ft 328 kts 197°
2026-05-07 20:21 50.15244 19.73351 22075 ft 322 kts 197°
2026-05-07 20:21 50.13124 19.72307 22017 ft 316 kts 197°
2026-05-07 20:22 50.11046 19.71281 21949 ft 310 kts 197°
2026-05-07 20:22 50.09013 19.70276 21876 ft 304 kts 197°
2026-05-07 20:22 50.07017 19.69292 21804 ft 297 kts 197°
2026-05-07 20:22 50.05066 19.68334 21729 ft 290 kts 197°
2026-05-07 20:23 50.03161 19.67399 21649 ft 283 kts 197°
2026-05-07 20:23 50.01312 19.66492 21575 ft 275 kts 197°
2026-05-07 20:23 49.99510 19.65608 21496 ft 266 kts 197°
2026-05-07 20:23 49.97772 19.64755 21407 ft 257 kts 197°
2026-05-07 20:24 49.96094 19.63935 21313 ft 248 kts 197°
2026-05-07 20:24 49.94478 19.63145 21195 ft 239 kts 197°
2026-05-07 20:24 49.92905 19.62379 20986 ft 235 kts 197°
2026-05-07 20:24 49.91308 19.61606 20482 ft 247 kts 197°
2026-05-07 20:25 49.89646 19.60809 19991 ft 258 kts 197°
2026-05-07 20:25 49.87884 19.59969 19603 ft 264 kts 197°
2026-05-07 20:25 49.86163 19.59134 19416 ft 261 kts 198°
2026-05-07 20:25 49.84463 19.58284 19368 ft 251 kts 198°
2026-05-07 20:26 49.82839 19.57477 19396 ft 239 kts 198°
2026-05-07 20:26 49.81255 19.56697 19420 ft 244 kts 198°
2026-05-07 20:26 49.79581 19.55876 19576 ft 261 kts 198°
2026-05-07 20:26 49.77793 19.55002 19723 ft 278 kts 198°
2026-05-07 20:27 49.75892 19.54074 19918 ft 294 kts 198°
2026-05-07 20:27 49.73900 19.53106 20192 ft 307 kts 198°
2026-05-07 20:27 49.71802 19.52090 20369 ft 324 kts 197°
2026-05-07 20:27 49.69605 19.51030 20619 ft 338 kts 197°
2026-05-07 20:28 49.67310 19.49927 20858 ft 351 kts 197°
2026-05-07 20:28 49.64931 19.48782 21057 ft 365 kts 197°
2026-05-07 20:28 49.62476 19.47519 21241 ft 379 kts 200°
2026-05-07 20:28 49.60091 19.45737 21412 ft 393 kts 210°
2026-05-07 20:29 49.57793 19.43335 21592 ft 406 kts 214°
2026-05-07 20:29 49.55485 19.40741 21824 ft 416 kts 214°
2026-05-07 20:29 49.53125 19.38087 22230 ft 420 kts 214°
2026-05-07 20:29 49.50747 19.35438 22728 ft 423 kts 213°
2026-05-07 20:30 49.48359 19.32796 23249 ft 425 kts 213°
2026-05-07 20:30 49.45942 19.30129 23745 ft 427 kts 213°
2026-05-07 20:30 49.43514 19.27461 24192 ft 428 kts 213°
2026-05-07 20:30 49.41121 19.24829 24635 ft 429 kts 213°
2026-05-07 20:31 49.38699 19.22164 25199 ft 427 kts 213°
2026-05-07 20:31 49.36287 19.19516 25802 ft 424 kts 213°
2026-05-07 20:31 49.33891 19.16887 26395 ft 421 kts 213°
2026-05-07 20:31 49.31516 19.14289 26990 ft 418 kts 213°
2026-05-07 20:32 49.29152 19.11710 27571 ft 416 kts 213°
2026-05-07 20:32 49.26795 19.09142 27944 ft 415 kts 213°
2026-05-07 20:32 49.24431 19.06562 28030 ft 416 kts 213°
2026-05-07 20:33 49.19706 19.01422 28024 ft 416 kts 213°
2026-05-07 20:33 49.15021 18.96331 28017 ft 416 kts 213°
2026-05-07 20:34 49.10306 18.91223 28011 ft 415 kts 213°
2026-05-07 20:34 49.05590 18.86128 28012 ft 415 kts 213°
2026-05-07 20:35 49.00869 18.81065 28017 ft 414 kts 213°
2026-05-07 20:35 48.96161 18.76013 28017 ft 415 kts 213°
2026-05-07 20:36 48.91457 18.70962 28034 ft 414 kts 213°
2026-05-07 20:36 48.86737 18.65912 28035 ft 413 kts 213°
2026-05-07 20:37 48.82098 18.60931 27811 ft 407 kts 213°
2026-05-07 20:37 48.79768 18.58441 27484 ft 411 kts 213°
2026-05-07 20:37 48.77421 18.55939 27210 ft 413 kts 213°
2026-05-07 20:37 48.75059 18.53425 26941 ft 415 kts 213°
2026-05-07 20:38 48.72695 18.50913 26681 ft 416 kts 213°
2026-05-07 20:38 48.70340 18.48412 26000 ft 412 kts 213°
2026-05-07 20:38 48.67991 18.45924 25105 ft 410 kts 213°
2026-05-07 20:38 48.65656 18.43452 24247 ft 408 kts 213°
2026-05-07 20:39 48.63333 18.40998 23426 ft 405 kts 213°
2026-05-07 20:39 48.61025 18.38559 22583 ft 404 kts 213°
2026-05-07 20:39 48.58762 18.36170 21879 ft 400 kts 214°
2026-05-07 20:39 48.56482 18.33769 21122 ft 396 kts 214°
2026-05-07 20:40 48.54229 18.31399 20391 ft 394 kts 214°
2026-05-07 20:40 48.51989 18.29043 19694 ft 391 kts 214°
2026-05-07 20:40 48.49761 18.26703 19016 ft 388 kts 215°
2026-05-07 20:40 48.47548 18.24381 18350 ft 387 kts 215°
2026-05-07 20:41 48.45335 18.22062 17613 ft 388 kts 215°
2026-05-07 20:41 48.43124 18.19745 16970 ft 386 kts 215°
2026-05-07 20:41 48.40925 18.17445 16366 ft 384 kts 215°
2026-05-07 20:41 48.38736 18.15160 15770 ft 382 kts 215°
2026-05-07 20:42 48.36553 18.12879 15149 ft 381 kts 215°
2026-05-07 20:42 48.34381 18.10611 14552 ft 381 kts 215°
2026-05-07 20:42 48.32216 18.08309 13953 ft 381 kts 218°
2026-05-07 20:42 48.30331 18.05521 13239 ft 381 kts 232°
2026-05-07 20:43 48.29030 18.02126 12677 ft 383 kts 248°
2026-05-07 20:43 48.28353 17.98258 12342 ft 383 kts 261°
2026-05-07 20:43 48.28003 17.94296 12078 ft 382 kts 262°
2026-05-07 20:43 48.27682 17.90386 11702 ft 370 kts 262°
2026-05-07 20:44 48.27365 17.86630 11445 ft 355 kts 262°
2026-05-07 20:44 48.27051 17.83041 11234 ft 339 kts 262°
2026-05-07 20:44 48.26614 17.79643 11023 ft 324 kts 251°
2026-05-07 20:44 48.25544 17.76784 10819 ft 310 kts 230°
2026-05-07 20:45 48.24065 17.74515 10640 ft 297 kts 224°
2026-05-07 20:45 48.22592 17.72427 10371 ft 288 kts 224°
2026-05-07 20:45 48.21140 17.70359 9921 ft 287 kts 224°
2026-05-07 20:45 48.19698 17.68287 9414 ft 286 kts 224°
2026-05-07 20:46 48.18265 17.66215 8926 ft 285 kts 224°
2026-05-07 20:46 48.16845 17.64153 8475 ft 283 kts 224°
2026-05-07 20:46 48.15433 17.62102 8013 ft 282 kts 224°
2026-05-07 20:46 48.14034 17.60071 7607 ft 277 kts 225°
2026-05-07 20:47 48.12686 17.58135 7393 ft 267 kts 224°
2026-05-07 20:47 48.11369 17.56255 7365 ft 248 kts 224°
2026-05-07 20:47 48.10303 17.54438 7420 ft 226 kts 236°
2026-05-07 20:47 48.09657 17.52233 7418 ft 236 kts 265°
2026-05-07 20:48 48.09970 17.49881 7426 ft 232 kts 301°
2026-05-07 20:48 48.11007 17.48051 7418 ft 231 kts 315°
2026-05-07 20:48 48.12174 17.46391 7433 ft 231 kts 316°
2026-05-07 20:48 48.13331 17.44712 7411 ft 231 kts 315°
2026-05-07 20:49 48.14462 17.43031 7439 ft 232 kts 314°
2026-05-07 20:49 48.15643 17.41384 7411 ft 232 kts 325°
2026-05-07 20:49 48.17134 17.40531 7435 ft 232 kts 356°
2026-05-07 20:49 48.18701 17.41005 7392 ft 233 kts 29°
2026-05-07 20:50 48.19569 17.41966 7299 ft 234 kts 43°
2026-05-07 20:50 48.20699 17.43712 7036 ft 231 kts 46°
2026-05-07 20:50 48.21796 17.45437 6738 ft 226 kts 45°
2026-05-07 20:50 48.22885 17.47105 6424 ft 222 kts 44°
2026-05-07 20:51 48.23970 17.48732 6090 ft 219 kts 44°
2026-05-07 20:51 48.25058 17.50335 5756 ft 218 kts 43°
2026-05-07 20:51 48.26140 17.51920 5423 ft 217 kts 43°
2026-05-07 20:51 48.27222 17.53504 5101 ft 216 kts 43°
2026-05-07 20:52 48.28295 17.55071 4770 ft 214 kts 43°
2026-05-07 20:52 48.29359 17.56622 4433 ft 212 kts 43°
2026-05-07 20:52 48.30449 17.58045 4098 ft 209 kts 29°
2026-05-07 20:52 48.31783 17.58726 3744 ft 199 kts 358°
2026-05-07 20:53 48.33031 17.58158 3441 ft 184 kts 320°
2026-05-07 20:53 48.33874 17.56753 3175 ft 180 kts 309°
2026-05-07 20:53 48.34715 17.55363 2877 ft 179 kts 311°
2026-05-07 20:53 48.35569 17.54010 2692 ft 178 kts 311°
2026-05-07 20:54 48.36412 17.52652 2564 ft 177 kts 309°
2026-05-07 20:54 48.36917 17.51027 2440 ft 175 kts 271°
2026-05-07 20:54 48.36481 17.49345 2453 ft 178 kts 233°
2026-05-07 20:54 48.35610 17.48024 2485 ft 179 kts 226°
2026-05-07 20:55 48.34670 17.46782 2490 ft 179 kts 226°
2026-05-07 20:55 48.33766 17.45498 2490 ft 179 kts 227°
2026-05-07 20:55 48.32868 17.44204 2486 ft 178 kts 227°
2026-05-07 20:55 48.31976 17.42911 2484 ft 179 kts 227°
2026-05-07 20:56 48.31088 17.41624 2487 ft 171 kts 227°
2026-05-07 20:56 48.30275 17.40447 2495 ft 159 kts 227°
2026-05-07 20:56 48.29482 17.39296 2500 ft 158 kts 228°
2026-05-07 20:56 48.28699 17.38162 2506 ft 158 kts 227°
2026-05-07 20:57 48.27902 17.37008 2508 ft 159 kts 227°
2026-05-07 20:57 48.27106 17.35855 2505 ft 159 kts 228°
2026-05-07 20:57 48.26329 17.34733 2467 ft 146 kts 228°
2026-05-07 20:57 48.25642 17.33739 2472 ft 134 kts 229°
2026-05-07 20:58 48.24969 17.32764 2389 ft 134 kts 229°
2026-05-07 20:58 48.24302 17.31800 2222 ft 133 kts 229°
2026-05-07 20:58 48.23636 17.30836 2029 ft 132 kts 229°
2026-05-07 20:58 48.22983 17.29892 1854 ft 131 kts 228°
2026-05-07 20:59 48.22326 17.28942 1668 ft 132 kts 229°
2026-05-07 20:59 48.21664 17.27987 1488 ft 132 kts 228°
2026-05-07 20:59 48.21005 17.27035 1317 ft 132 kts 227°
2026-05-07 20:59 48.20346 17.26084 1136 ft 131 kts 226°
2026-05-07 21:00 48.19695 17.25144 962 ft 130 kts 226°
2026-05-07 21:00 48.19047 17.24208 777 ft 128 kts 225°
2026-05-07 21:00 48.18407 17.23293 627 ft 126 kts 226°
2026-05-07 21:00 48.17783 17.22373 455 ft 124 kts 223°
2026-05-07 21:01 48.17233 17.21593 448 ft 86 kts 223°
2026-05-07 21:01 48.16948 17.21181 445 ft 27 kts 224°
2026-05-07 21:01 48.16917 17.21067 446 ft 8 kts 304°
2026-05-07 21:01 48.16955 17.20983 447 ft 11 kts 306°
2026-05-07 21:02 48.17013 17.20891 447 ft 13 kts 315°
2026-05-07 21:02 48.17084 17.20787 447 ft 15 kts 315°
2026-05-07 21:02 48.17158 17.20675 448 ft 14 kts 308°
2026-05-07 21:02 48.17143 17.20536 448 ft 15 kts 224°
2026-05-07 21:03 48.17136 17.20528 448 ft 0 kts 211°
2026-05-07 21:03 48.17131 17.20521 448 ft 3 kts 232°
2026-05-07 21:04 48.17112 17.20484 448 ft 6 kts 225°
2026-05-07 21:04 48.17078 17.20433 448 ft 8 kts 225°
2026-05-07 21:04 48.17071 17.20422 448 ft 0 kts 225°
2026-05-07 21:04 48.17069 17.20420 448 ft 3 kts 224°
2026-05-07 21:05 48.17039 17.20379 448 ft 7 kts 221°
2026-05-07 21:05 48.16994 17.20319 448 ft 10 kts 221°
2026-05-07 21:05 48.16937 17.20242 448 ft 12 kts 222°
2026-05-07 21:05 48.16867 17.20148 448 ft 15 kts 222°
2026-05-07 21:06 48.16825 17.20082 449 ft 6 kts 256°
2026-05-07 21:06 48.16837 17.20059 448 ft 3 kts 315°
2026-05-07 21:06 48.16853 17.20034 448 ft 1 kts 308°
2026-05-07 21:06 48.16860 17.20019 448 ft 1 kts 303°
2026-05-07 21:07 48.16860 17.20018 448 ft 0 kts 303°